Year,Month,Day,Hour,Minute,Value (Times are PST for temperature in C)
2009,07,29,00,00,24.40
2009,07,29,00,01,24.40
2009,07,29,00,02,24.30
2009,07,29,00,03,24.30
2009,07,29,00,04,24.20
2009,07,29,00,05,24.10
2009,07,29,00,06,23.90
2009,07,29,00,07,23.80
2009,07,29,00,08,23.60
2009,07,29,00,09,23.50
2009,07,29,00,10,23.40
2009,07,29,00,11,23.30
2009,07,29,00,12,23.30
2009,07,29,00,13,23.20
2009,07,29,00,14,23.20
2009,07,29,00,15,23.20
2009,07,29,00,16,23.30
2009,07,29,00,17,23.40
2009,07,29,00,18,23.60
2009,07,29,00,19,23.80
2009,07,29,00,20,24.00
2009,07,29,00,21,24.20
2009,07,29,00,22,24.40
2009,07,29,00,23,24.50
2009,07,29,00,24,24.70
2009,07,29,00,25,24.80
2009,07,29,00,26,24.90
2009,07,29,00,27,25.10
2009,07,29,00,28,25.20
2009,07,29,00,29,25.30
2009,07,29,00,30,25.30
2009,07,29,00,31,25.40
2009,07,29,00,32,25.40
2009,07,29,00,33,25.50
2009,07,29,00,34,25.50
2009,07,29,00,35,25.60
2009,07,29,00,36,25.60
2009,07,29,00,37,25.60
2009,07,29,00,38,25.60
2009,07,29,00,39,25.60
2009,07,29,00,40,25.60
2009,07,29,00,41,25.50
2009,07,29,00,42,25.50
2009,07,29,00,43,25.50
2009,07,29,00,44,25.40
2009,07,29,00,45,25.40
2009,07,29,00,46,25.40
2009,07,29,00,47,25.30
2009,07,29,00,48,25.30
2009,07,29,00,49,25.30
2009,07,29,00,50,25.30
2009,07,29,00,51,25.40
2009,07,29,00,52,25.40
2009,07,29,00,53,25.50
2009,07,29,00,54,25.50
2009,07,29,00,55,25.60
2009,07,29,00,56,25.60
2009,07,29,00,57,25.60
2009,07,29,00,58,25.60
2009,07,29,00,59,25.60
2009,07,29,01,00,25.60
2009,07,29,01,01,25.60
2009,07,29,01,02,25.60
2009,07,29,01,03,25.60
2009,07,29,01,04,25.60
2009,07,29,01,05,25.60
2009,07,29,01,06,25.60
2009,07,29,01,07,25.60
2009,07,29,01,08,25.50
2009,07,29,01,09,25.50
2009,07,29,01,10,25.50
2009,07,29,01,11,25.50
2009,07,29,01,12,25.50
2009,07,29,01,13,25.60
2009,07,29,01,14,25.60
2009,07,29,01,15,25.60
2009,07,29,01,16,25.70
2009,07,29,01,17,25.80
2009,07,29,01,18,25.80
2009,07,29,01,19,25.90
2009,07,29,01,20,26.00
2009,07,29,01,21,26.10
2009,07,29,01,22,26.20
2009,07,29,01,23,26.30
2009,07,29,01,24,26.30
2009,07,29,01,25,26.30
2009,07,29,01,26,26.40
2009,07,29,01,27,26.40
2009,07,29,01,28,26.50
2009,07,29,01,29,26.50
2009,07,29,01,30,26.60
2009,07,29,01,31,26.60
2009,07,29,01,32,26.60
2009,07,29,01,33,26.60
2009,07,29,01,34,26.70
2009,07,29,01,35,26.70
2009,07,29,01,36,26.70
2009,07,29,01,37,26.70
2009,07,29,01,38,26.70
2009,07,29,01,39,26.70
2009,07,29,01,40,26.70
2009,07,29,01,41,26.70
2009,07,29,01,42,26.70
2009,07,29,01,43,26.80
2009,07,29,01,44,26.80
2009,07,29,01,45,26.80
2009,07,29,01,46,26.80
2009,07,29,01,47,26.80
2009,07,29,01,48,26.80
2009,07,29,01,49,26.80
2009,07,29,01,50,26.80
2009,07,29,01,51,26.80
2009,07,29,01,52,26.80
2009,07,29,01,53,26.80
2009,07,29,01,54,26.80
2009,07,29,01,55,26.70
2009,07,29,01,56,26.70
2009,07,29,01,57,26.70
2009,07,29,01,58,26.70
2009,07,29,01,59,26.70
2009,07,29,02,00,26.70
2009,07,29,02,01,26.70
2009,07,29,02,02,26.80
2009,07,29,02,03,26.80
2009,07,29,02,04,26.80
2009,07,29,02,05,26.80
2009,07,29,02,06,26.80
2009,07,29,02,07,26.80
2009,07,29,02,08,26.80
2009,07,29,02,09,26.80
2009,07,29,02,10,26.80
2009,07,29,02,11,26.70
2009,07,29,02,12,26.70
2009,07,29,02,13,26.60
2009,07,29,02,14,26.50
2009,07,29,02,15,26.40
2009,07,29,02,16,26.20
2009,07,29,02,17,26.00
2009,07,29,02,18,25.80
2009,07,29,02,19,25.40
2009,07,29,02,20,25.30
2009,07,29,02,21,25.10
2009,07,29,02,22,24.90
2009,07,29,02,23,24.70
2009,07,29,02,24,24.50
2009,07,29,02,25,24.40
2009,07,29,02,26,24.30
2009,07,29,02,27,24.20
2009,07,29,02,28,24.10
2009,07,29,02,29,24.10
2009,07,29,02,30,24.10
2009,07,29,02,31,24.00
2009,07,29,02,32,24.00
2009,07,29,02,33,23.90
2009,07,29,02,34,23.90
2009,07,29,02,35,23.90
2009,07,29,02,36,23.90
2009,07,29,02,37,23.90
2009,07,29,02,38,23.90
2009,07,29,02,39,23.80
2009,07,29,02,40,23.70
2009,07,29,02,41,23.60
2009,07,29,02,42,23.60
2009,07,29,02,43,23.50
2009,07,29,02,44,23.40
2009,07,29,02,45,23.30
2009,07,29,02,46,23.20
2009,07,29,02,47,23.10
2009,07,29,02,48,23.00
2009,07,29,02,49,22.90
2009,07,29,02,50,22.80
2009,07,29,02,51,22.80
2009,07,29,02,52,22.70
2009,07,29,02,53,22.60
2009,07,29,02,54,22.50
2009,07,29,02,55,22.50
2009,07,29,02,56,22.60
2009,07,29,02,57,22.60
2009,07,29,02,58,22.60
2009,07,29,02,59,22.70
2009,07,29,03,00,22.70
2009,07,29,03,01,22.70
2009,07,29,03,02,22.70
2009,07,29,03,03,22.70
2009,07,29,03,04,22.60
2009,07,29,03,05,22.50
2009,07,29,03,06,22.40
2009,07,29,03,07,22.30
2009,07,29,03,08,22.30
2009,07,29,03,09,22.40
2009,07,29,03,10,22.40
2009,07,29,03,11,22.50
2009,07,29,03,12,22.60
2009,07,29,03,13,22.70
2009,07,29,03,14,22.70
2009,07,29,03,15,22.80
2009,07,29,03,16,22.80
2009,07,29,03,17,22.80
2009,07,29,03,18,22.70
2009,07,29,03,19,22.70
2009,07,29,03,20,22.70
2009,07,29,03,21,22.70
2009,07,29,03,22,22.70
2009,07,29,03,23,22.70
2009,07,29,03,24,22.60
2009,07,29,03,25,22.50
2009,07,29,03,26,22.40
2009,07,29,03,27,22.30
2009,07,29,03,28,22.20
2009,07,29,03,29,22.10
2009,07,29,03,30,22.00
2009,07,29,03,31,22.00
2009,07,29,03,32,21.90
2009,07,29,03,33,21.90
2009,07,29,03,34,21.80
2009,07,29,03,35,21.80
2009,07,29,03,36,21.80
2009,07,29,03,37,21.70
2009,07,29,03,38,21.70
2009,07,29,03,39,21.70
2009,07,29,03,40,21.70
2009,07,29,03,41,21.60
2009,07,29,03,42,21.60
2009,07,29,03,43,21.60
2009,07,29,03,44,21.70
2009,07,29,03,45,21.70
2009,07,29,03,46,21.80
2009,07,29,03,47,21.80
2009,07,29,03,48,21.80
2009,07,29,03,49,21.80
2009,07,29,03,50,21.80
2009,07,29,03,51,21.80
2009,07,29,03,52,21.70
2009,07,29,03,53,21.60
2009,07,29,03,54,21.50
2009,07,29,03,55,21.40
2009,07,29,03,56,21.40
2009,07,29,03,57,21.30
2009,07,29,03,58,21.30
2009,07,29,03,59,21.30
2009,07,29,04,00,21.30
2009,07,29,04,01,21.30
2009,07,29,04,02,21.30
2009,07,29,04,03,21.30
2009,07,29,04,04,21.30
2009,07,29,04,05,21.30
2009,07,29,04,06,21.30
2009,07,29,04,07,21.30
2009,07,29,04,08,21.40
2009,07,29,04,09,21.40
2009,07,29,04,10,21.40
2009,07,29,04,11,21.50
2009,07,29,04,12,21.70
2009,07,29,04,13,21.80
2009,07,29,04,14,22.00
2009,07,29,04,15,22.10
2009,07,29,04,16,22.10
2009,07,29,04,17,22.10
2009,07,29,04,18,22.10
2009,07,29,04,19,22.20
2009,07,29,04,20,22.30
2009,07,29,04,21,22.40
2009,07,29,04,22,22.40
2009,07,29,04,23,22.40
2009,07,29,04,24,22.30
2009,07,29,04,25,22.30
2009,07,29,04,26,22.20
2009,07,29,04,27,22.20
2009,07,29,04,28,22.20
2009,07,29,04,29,22.40
2009,07,29,04,30,22.50
2009,07,29,04,31,22.60
2009,07,29,04,32,22.60
2009,07,29,04,33,22.60
2009,07,29,04,34,22.50
2009,07,29,04,35,22.50
2009,07,29,04,36,22.50
2009,07,29,04,37,22.50
2009,07,29,04,38,22.60
2009,07,29,04,39,22.70
2009,07,29,04,40,22.80
2009,07,29,04,41,22.90
2009,07,29,04,42,23.00
2009,07,29,04,43,23.00
2009,07,29,04,44,23.00
2009,07,29,04,45,23.00
2009,07,29,04,46,22.90
2009,07,29,04,47,22.90
2009,07,29,04,48,22.90
2009,07,29,04,49,22.80
2009,07,29,04,50,22.70
2009,07,29,04,51,22.70
2009,07,29,04,52,22.70
2009,07,29,04,53,22.70
2009,07,29,04,54,22.70
2009,07,29,04,55,22.70
2009,07,29,04,56,22.70
2009,07,29,04,57,22.80
2009,07,29,04,58,22.80
2009,07,29,04,59,22.90
2009,07,29,05,00,22.90
2009,07,29,05,01,23.00
2009,07,29,05,02,23.00
2009,07,29,05,03,22.90
2009,07,29,05,04,22.90
2009,07,29,05,05,22.80
2009,07,29,05,06,22.70
2009,07,29,05,07,22.60
2009,07,29,05,08,22.60
2009,07,29,05,09,22.50
2009,07,29,05,10,22.30
2009,07,29,05,11,22.20
2009,07,29,05,12,22.10
2009,07,29,05,13,22.00
2009,07,29,05,14,21.90
2009,07,29,05,15,21.80
2009,07,29,05,16,21.70
2009,07,29,05,17,21.60
2009,07,29,05,18,21.40
2009,07,29,05,19,21.30
2009,07,29,05,20,21.20
2009,07,29,05,21,21.10
2009,07,29,05,22,21.10
2009,07,29,05,23,21.00
2009,07,29,05,24,20.80
2009,07,29,05,25,20.60
2009,07,29,05,26,20.50
2009,07,29,05,27,20.40
2009,07,29,05,28,20.40
2009,07,29,05,29,20.40
2009,07,29,05,30,20.40
2009,07,29,05,31,20.30
2009,07,29,05,32,20.30
2009,07,29,05,33,20.30
2009,07,29,05,34,20.40
2009,07,29,05,35,20.40
2009,07,29,05,36,20.30
2009,07,29,05,37,20.20
2009,07,29,05,38,20.20
2009,07,29,05,39,20.10
2009,07,29,05,40,20.10
2009,07,29,05,41,20.10
2009,07,29,05,42,20.10
2009,07,29,05,43,20.00
2009,07,29,05,44,20.00
2009,07,29,05,45,19.90
2009,07,29,05,46,19.80
2009,07,29,05,47,19.80
2009,07,29,05,48,19.80
2009,07,29,05,49,19.80
2009,07,29,05,50,19.80
2009,07,29,05,51,19.80
2009,07,29,05,52,19.80
2009,07,29,05,53,19.80
2009,07,29,05,54,19.80
2009,07,29,05,55,19.70
2009,07,29,05,56,19.70
2009,07,29,05,57,19.70
2009,07,29,05,58,19.80
2009,07,29,05,59,19.80
2009,07,29,06,00,19.70
2009,07,29,06,01,19.70
2009,07,29,06,02,19.70
2009,07,29,06,03,19.70
2009,07,29,06,04,19.70
2009,07,29,06,05,19.70
2009,07,29,06,06,19.70
2009,07,29,06,07,19.70
2009,07,29,06,08,19.70
2009,07,29,06,09,19.70
2009,07,29,06,10,19.70
2009,07,29,06,11,19.70
2009,07,29,06,12,19.70
2009,07,29,06,13,19.70
2009,07,29,06,14,19.70
2009,07,29,06,15,19.70
2009,07,29,06,16,19.70
2009,07,29,06,17,19.70
2009,07,29,06,18,19.70
2009,07,29,06,19,19.60
2009,07,29,06,20,19.60
2009,07,29,06,21,19.60
2009,07,29,06,22,19.60
2009,07,29,06,23,19.60
2009,07,29,06,24,19.60
2009,07,29,06,25,19.60
2009,07,29,06,26,19.60
2009,07,29,06,27,19.70
2009,07,29,06,28,19.70
2009,07,29,06,29,19.70
2009,07,29,06,30,19.80
2009,07,29,06,31,19.80
2009,07,29,06,32,19.80
2009,07,29,06,33,19.90
2009,07,29,06,34,19.90
2009,07,29,06,35,20.00
2009,07,29,06,36,20.00
2009,07,29,06,37,20.10
2009,07,29,06,38,20.10
2009,07,29,06,39,20.20
2009,07,29,06,40,20.20
2009,07,29,06,41,20.10
2009,07,29,06,42,20.00
2009,07,29,06,43,20.00
2009,07,29,06,44,20.00
2009,07,29,06,45,20.10
2009,07,29,06,46,20.10
2009,07,29,06,47,20.10
2009,07,29,06,48,20.10
2009,07,29,06,49,20.10
2009,07,29,06,50,20.20
2009,07,29,06,51,20.30
2009,07,29,06,52,20.40
2009,07,29,06,53,20.40
2009,07,29,06,54,20.50
2009,07,29,06,55,20.50
2009,07,29,06,56,20.60
2009,07,29,06,57,20.60
2009,07,29,06,58,20.60
2009,07,29,06,59,20.70
2009,07,29,07,00,20.70
2009,07,29,07,01,20.80
2009,07,29,07,02,20.80
2009,07,29,07,03,20.90
2009,07,29,07,04,21.00
2009,07,29,07,05,21.00
2009,07,29,07,06,21.10
2009,07,29,07,07,21.20
2009,07,29,07,08,21.30
2009,07,29,07,09,21.30
2009,07,29,07,10,21.40
2009,07,29,07,11,21.30
2009,07,29,07,12,21.30
2009,07,29,07,13,21.40
2009,07,29,07,14,21.40
2009,07,29,07,15,21.40
2009,07,29,07,16,21.40
2009,07,29,07,17,21.40
2009,07,29,07,18,21.30
2009,07,29,07,19,21.30
2009,07,29,07,20,21.40
2009,07,29,07,21,21.40
2009,07,29,07,22,21.40
2009,07,29,07,23,21.50
2009,07,29,07,24,21.60
2009,07,29,07,25,21.60
2009,07,29,07,26,21.70
2009,07,29,07,27,21.80
2009,07,29,07,28,21.80
2009,07,29,07,29,21.90
2009,07,29,07,30,22.00
2009,07,29,07,31,22.10
2009,07,29,07,32,22.20
2009,07,29,07,33,22.30
2009,07,29,07,34,22.30
2009,07,29,07,35,22.40
2009,07,29,07,36,22.50
2009,07,29,07,37,22.60
2009,07,29,07,38,22.70
2009,07,29,07,39,22.70
2009,07,29,07,40,22.80
2009,07,29,07,41,22.90
2009,07,29,07,42,23.00
2009,07,29,07,43,23.10
2009,07,29,07,44,23.20
2009,07,29,07,45,23.30
2009,07,29,07,46,23.40
2009,07,29,07,47,23.50
2009,07,29,07,48,23.70
2009,07,29,07,49,23.90
2009,07,29,07,50,24.10
2009,07,29,07,51,24.30
2009,07,29,07,52,24.50
2009,07,29,07,53,24.60
2009,07,29,07,54,24.80
2009,07,29,07,55,24.90
2009,07,29,07,56,25.10
2009,07,29,07,57,25.20
2009,07,29,07,58,25.30
2009,07,29,07,59,25.40
2009,07,29,08,00,25.60
2009,07,29,08,01,25.70
2009,07,29,08,02,25.80
2009,07,29,08,03,25.90
2009,07,29,08,04,25.90
2009,07,29,08,05,26.00
2009,07,29,08,06,26.10
2009,07,29,08,07,26.10
2009,07,29,08,08,26.10
2009,07,29,08,09,26.10
2009,07,29,08,10,26.10
2009,07,29,08,11,26.10
2009,07,29,08,12,26.00
2009,07,29,08,13,26.00
2009,07,29,08,14,26.00
2009,07,29,08,15,26.00
2009,07,29,08,16,26.00
2009,07,29,08,17,26.00
2009,07,29,08,18,26.00
2009,07,29,08,19,26.10
2009,07,29,08,20,26.10
2009,07,29,08,21,26.20
2009,07,29,08,22,26.20
2009,07,29,08,23,26.20
2009,07,29,08,24,26.30
2009,07,29,08,25,26.30
2009,07,29,08,26,26.20
2009,07,29,08,27,26.20
2009,07,29,08,28,26.30
2009,07,29,08,29,26.30
2009,07,29,08,30,26.30
2009,07,29,08,31,26.30
2009,07,29,08,32,26.30
2009,07,29,08,33,26.30
2009,07,29,08,34,26.30
2009,07,29,08,35,26.20
2009,07,29,08,36,26.20
2009,07,29,08,37,26.20
2009,07,29,08,38,26.10
2009,07,29,08,39,26.10
2009,07,29,08,40,26.20
2009,07,29,08,41,26.10
2009,07,29,08,42,26.10
2009,07,29,08,43,26.10
2009,07,29,08,44,26.10
2009,07,29,08,45,26.00
2009,07,29,08,46,26.00
2009,07,29,08,47,25.90
2009,07,29,08,48,25.90
2009,07,29,08,49,25.90
2009,07,29,08,50,25.90
2009,07,29,08,51,25.90
2009,07,29,08,52,25.90
2009,07,29,08,53,25.80
2009,07,29,08,54,25.70
2009,07,29,08,55,25.60
2009,07,29,08,56,25.50
2009,07,29,08,57,25.40
2009,07,29,08,58,25.40
2009,07,29,08,59,25.40
2009,07,29,09,00,25.40
2009,07,29,09,01,25.40
2009,07,29,09,02,25.40
2009,07,29,09,03,25.40
2009,07,29,09,04,25.40
2009,07,29,09,05,25.40
2009,07,29,09,06,25.50
2009,07,29,09,07,25.50
2009,07,29,09,08,25.50
2009,07,29,09,09,25.50
2009,07,29,09,10,25.50
2009,07,29,09,11,25.50
2009,07,29,09,12,25.50
2009,07,29,09,13,25.50
2009,07,29,09,14,25.50
2009,07,29,09,15,25.50
2009,07,29,09,16,25.40
2009,07,29,09,17,25.40
2009,07,29,09,18,25.40
2009,07,29,09,19,25.40
2009,07,29,09,20,25.40
2009,07,29,09,21,25.30
2009,07,29,09,22,25.30
2009,07,29,09,23,25.40
2009,07,29,09,24,25.40
2009,07,29,09,25,25.50
2009,07,29,09,26,25.60
2009,07,29,09,27,25.60
2009,07,29,09,28,25.60
2009,07,29,09,29,25.60
2009,07,29,09,30,25.60
2009,07,29,09,31,25.70
2009,07,29,09,32,25.70
2009,07,29,09,33,25.70
2009,07,29,09,34,25.60
2009,07,29,09,35,25.60
2009,07,29,09,36,25.60
2009,07,29,09,37,25.60
2009,07,29,09,38,25.60
2009,07,29,09,39,25.50
2009,07,29,09,40,25.50
2009,07,29,09,41,25.60
2009,07,29,09,42,25.60
2009,07,29,09,43,25.70
2009,07,29,09,44,25.80
2009,07,29,09,45,25.80
2009,07,29,09,46,25.90
2009,07,29,09,47,25.90
2009,07,29,09,48,26.10
2009,07,29,09,49,26.20
2009,07,29,09,50,26.40
2009,07,29,09,51,26.50
2009,07,29,09,52,26.60
2009,07,29,09,53,26.60
2009,07,29,09,54,26.60
2009,07,29,09,55,26.50
2009,07,29,09,56,26.50
2009,07,29,09,57,26.40
2009,07,29,09,58,26.40
2009,07,29,09,59,26.30
2009,07,29,10,00,26.40
2009,07,29,10,01,26.40
2009,07,29,10,02,26.40
2009,07,29,10,03,26.50
2009,07,29,10,04,26.60
2009,07,29,10,05,26.60
2009,07,29,10,06,26.70
2009,07,29,10,07,26.80
2009,07,29,10,08,26.80
2009,07,29,10,09,26.80
2009,07,29,10,10,26.80
2009,07,29,10,11,26.80
2009,07,29,10,12,26.80
2009,07,29,10,13,26.80
2009,07,29,10,14,26.80
2009,07,29,10,15,26.80
2009,07,29,10,16,26.90
2009,07,29,10,17,27.00
2009,07,29,10,18,27.10
2009,07,29,10,19,27.20
2009,07,29,10,20,27.30
2009,07,29,10,21,27.30
2009,07,29,10,22,27.40
2009,07,29,10,23,27.40
2009,07,29,10,24,27.30
2009,07,29,10,25,27.30
2009,07,29,10,26,27.10
2009,07,29,10,27,26.90
2009,07,29,10,28,26.70
2009,07,29,10,29,26.50
2009,07,29,10,30,26.40
2009,07,29,10,31,26.30
2009,07,29,10,32,26.20
2009,07,29,10,33,26.20
2009,07,29,10,34,26.20
2009,07,29,10,35,26.20
2009,07,29,10,36,26.20
2009,07,29,10,37,26.20
2009,07,29,10,38,26.20
2009,07,29,10,39,26.40
2009,07,29,10,40,26.50
2009,07,29,10,41,26.50
2009,07,29,10,42,26.50
2009,07,29,10,43,26.50
2009,07,29,10,44,26.60
2009,07,29,10,45,26.70
2009,07,29,10,46,26.70
2009,07,29,10,47,26.70
2009,07,29,10,48,26.80
2009,07,29,10,49,26.80
2009,07,29,10,50,26.90
2009,07,29,10,51,26.90
2009,07,29,10,52,27.00
2009,07,29,10,53,27.20
2009,07,29,10,54,27.30
2009,07,29,10,55,27.40
2009,07,29,10,56,27.50
2009,07,29,10,57,27.60
2009,07,29,10,58,27.70
2009,07,29,10,59,27.70
2009,07,29,11,00,27.80
2009,07,29,11,01,27.90
2009,07,29,11,02,27.90
2009,07,29,11,03,27.90
2009,07,29,11,04,27.90
2009,07,29,11,05,27.90
2009,07,29,11,06,27.90
2009,07,29,11,07,28.00
2009,07,29,11,08,28.10
2009,07,29,11,09,28.20
2009,07,29,11,10,28.30
2009,07,29,11,11,28.40
2009,07,29,11,12,28.40
2009,07,29,11,13,28.50
2009,07,29,11,14,28.60
2009,07,29,11,15,28.60
2009,07,29,11,16,28.70
2009,07,29,11,17,28.70
2009,07,29,11,18,28.50
2009,07,29,11,19,28.40
2009,07,29,11,20,28.20
2009,07,29,11,21,28.10
2009,07,29,11,22,28.00
2009,07,29,11,23,27.80
2009,07,29,11,24,27.50
2009,07,29,11,25,27.40
2009,07,29,11,26,27.30
2009,07,29,11,27,27.20
2009,07,29,11,28,27.20
2009,07,29,11,29,27.20
2009,07,29,11,30,27.10
2009,07,29,11,31,26.90
2009,07,29,11,32,26.80
2009,07,29,11,33,26.70
2009,07,29,11,34,26.60
2009,07,29,11,35,26.60
2009,07,29,11,36,26.40
2009,07,29,11,37,26.30
2009,07,29,11,38,26.30
2009,07,29,11,39,26.20
2009,07,29,11,40,26.10
2009,07,29,11,41,26.00
2009,07,29,11,42,25.90
2009,07,29,11,43,25.90
2009,07,29,11,44,25.90
2009,07,29,11,45,26.00
2009,07,29,11,46,26.00
2009,07,29,11,47,26.10
2009,07,29,11,48,26.10
2009,07,29,11,49,26.20
2009,07,29,11,50,26.30
2009,07,29,11,51,26.50
2009,07,29,11,52,26.50
2009,07,29,11,53,26.50
2009,07,29,11,54,26.50
2009,07,29,11,55,26.60
2009,07,29,11,56,26.70
2009,07,29,11,57,26.80
2009,07,29,11,58,26.70
2009,07,29,11,59,26.70
2009,07,29,12,00,26.70
2009,07,29,12,01,26.80
2009,07,29,12,02,26.90
2009,07,29,12,03,27.00
2009,07,29,12,04,27.10
2009,07,29,12,05,27.30
2009,07,29,12,06,27.30
2009,07,29,12,07,27.40
2009,07,29,12,08,27.50
2009,07,29,12,09,27.60
2009,07,29,12,10,27.70
2009,07,29,12,11,27.70
2009,07,29,12,12,27.80
2009,07,29,12,13,27.90
2009,07,29,12,14,28.00
2009,07,29,12,15,28.10
2009,07,29,12,16,28.10
2009,07,29,12,17,28.10
2009,07,29,12,18,28.10
2009,07,29,12,19,28.10
2009,07,29,12,20,28.10
2009,07,29,12,21,28.20
2009,07,29,12,22,28.40
2009,07,29,12,23,28.50
2009,07,29,12,24,28.60
2009,07,29,12,25,28.80
2009,07,29,12,26,28.90
2009,07,29,12,27,28.90
2009,07,29,12,28,29.10
2009,07,29,12,29,29.20
2009,07,29,12,30,29.30
2009,07,29,12,31,29.40
2009,07,29,12,32,29.50
2009,07,29,12,33,29.60
2009,07,29,12,34,29.50
2009,07,29,12,35,29.40
2009,07,29,12,36,29.10
2009,07,29,12,37,28.90
2009,07,29,12,38,28.80
2009,07,29,12,39,28.70
2009,07,29,12,40,28.60
2009,07,29,12,41,28.60
2009,07,29,12,42,28.60
2009,07,29,12,43,28.60
2009,07,29,12,44,28.60
2009,07,29,12,45,28.60
2009,07,29,12,46,28.60
2009,07,29,12,47,28.50
2009,07,29,12,48,28.30
2009,07,29,12,49,28.20
2009,07,29,12,50,28.00
2009,07,29,12,51,27.80
2009,07,29,12,52,27.70
2009,07,29,12,53,27.60
2009,07,29,12,54,27.60
2009,07,29,12,55,27.60
2009,07,29,12,56,27.70
2009,07,29,12,57,27.80
2009,07,29,12,58,27.80
2009,07,29,12,59,27.80
2009,07,29,13,00,27.80
2009,07,29,13,01,27.80
2009,07,29,13,02,27.90
2009,07,29,13,03,28.00
2009,07,29,13,04,28.10
2009,07,29,13,05,28.20
2009,07,29,13,06,28.20
2009,07,29,13,07,28.30
2009,07,29,13,08,28.30
2009,07,29,13,09,28.30
2009,07,29,13,10,28.30
2009,07,29,13,11,28.20
2009,07,29,13,12,28.20
2009,07,29,13,13,28.20
2009,07,29,13,14,28.30
2009,07,29,13,15,28.30
2009,07,29,13,16,28.30
2009,07,29,13,17,28.30
2009,07,29,13,18,28.40
2009,07,29,13,19,28.60
2009,07,29,13,20,28.70
2009,07,29,13,21,28.70
2009,07,29,13,22,28.80
2009,07,29,13,23,28.80
2009,07,29,13,24,28.90
2009,07,29,13,25,29.00
2009,07,29,13,26,29.00
2009,07,29,13,27,29.00
2009,07,29,13,28,29.00
2009,07,29,13,29,28.90
2009,07,29,13,30,28.90
2009,07,29,13,31,28.90
2009,07,29,13,32,28.80
2009,07,29,13,33,28.80
2009,07,29,13,34,28.70
2009,07,29,13,35,28.70
2009,07,29,13,36,28.60
2009,07,29,13,37,28.60
2009,07,29,13,38,28.60
2009,07,29,13,39,28.50
2009,07,29,13,40,28.50
2009,07,29,13,41,28.40
2009,07,29,13,42,28.30
2009,07,29,13,43,28.20
2009,07,29,13,44,28.20
2009,07,29,13,45,28.20
2009,07,29,13,46,28.20
2009,07,29,13,47,28.30
2009,07,29,13,48,28.40
2009,07,29,13,49,28.50
2009,07,29,13,50,28.70
2009,07,29,13,51,28.70
2009,07,29,13,52,28.70
2009,07,29,13,53,28.60
2009,07,29,13,54,28.70
2009,07,29,13,55,28.70
2009,07,29,13,56,28.70
2009,07,29,13,57,28.80
2009,07,29,13,58,28.80
2009,07,29,13,59,28.90
2009,07,29,14,00,29.00
2009,07,29,14,01,29.10
2009,07,29,14,02,29.00
2009,07,29,14,03,28.90
2009,07,29,14,04,28.90
2009,07,29,14,05,29.00
2009,07,29,14,06,29.00
2009,07,29,14,07,28.90
2009,07,29,14,08,28.80
2009,07,29,14,09,28.70
2009,07,29,14,10,28.70
2009,07,29,14,11,28.60
2009,07,29,14,12,28.60
2009,07,29,14,13,28.50
2009,07,29,14,14,28.50
2009,07,29,14,15,28.50
2009,07,29,14,16,28.50
2009,07,29,14,17,28.50
2009,07,29,14,18,28.50
2009,07,29,14,19,28.60
2009,07,29,14,20,28.60
2009,07,29,14,21,28.70
2009,07,29,14,22,28.70
2009,07,29,14,23,28.70
2009,07,29,14,24,28.80
2009,07,29,14,25,28.80
2009,07,29,14,26,28.80
2009,07,29,14,27,28.80
2009,07,29,14,28,28.80
2009,07,29,14,29,28.80
2009,07,29,14,30,28.80
2009,07,29,14,31,28.90
2009,07,29,14,32,28.90
2009,07,29,14,33,28.90
2009,07,29,14,34,29.00
2009,07,29,14,35,29.00
2009,07,29,14,36,29.00
2009,07,29,14,37,29.10
2009,07,29,14,38,29.10
2009,07,29,14,39,29.10
2009,07,29,14,40,29.20
2009,07,29,14,41,29.30
2009,07,29,14,42,29.50
2009,07,29,14,43,29.50
2009,07,29,14,44,29.50
2009,07,29,14,45,29.60
2009,07,29,14,46,29.60
2009,07,29,14,47,29.60
2009,07,29,14,48,29.60
2009,07,29,14,49,29.60
2009,07,29,14,50,29.60
2009,07,29,14,51,29.60
2009,07,29,14,52,29.60
2009,07,29,14,53,29.50
2009,07,29,14,54,29.50
2009,07,29,14,55,29.50
2009,07,29,14,56,29.50
2009,07,29,14,57,29.40
2009,07,29,14,58,29.50
2009,07,29,14,59,29.50
2009,07,29,15,00,29.60
2009,07,29,15,01,29.60
2009,07,29,15,02,29.70
2009,07,29,15,03,29.70
2009,07,29,15,04,29.70
2009,07,29,15,05,29.70
2009,07,29,15,06,29.60
2009,07,29,15,07,29.60
2009,07,29,15,08,29.50
2009,07,29,15,09,29.40
2009,07,29,15,10,29.30
2009,07,29,15,11,29.20
2009,07,29,15,12,29.20
2009,07,29,15,13,29.20
2009,07,29,15,14,29.20
2009,07,29,15,15,29.20
2009,07,29,15,16,29.20
2009,07,29,15,17,29.20
2009,07,29,15,18,29.20
2009,07,29,15,19,29.20
2009,07,29,15,20,29.20
2009,07,29,15,21,29.30
2009,07,29,15,22,29.30
2009,07,29,15,23,29.40
2009,07,29,15,24,29.50
2009,07,29,15,25,29.60
2009,07,29,15,26,29.60
2009,07,29,15,27,29.70
2009,07,29,15,28,29.80
2009,07,29,15,29,29.80
2009,07,29,15,30,29.90
2009,07,29,15,31,29.90
2009,07,29,15,32,30.00
2009,07,29,15,33,30.10
2009,07,29,15,34,30.10
2009,07,29,15,35,30.10
2009,07,29,15,36,30.10
2009,07,29,15,37,30.10
2009,07,29,15,38,30.20
2009,07,29,15,39,30.20
2009,07,29,15,40,30.20
2009,07,29,15,41,30.20
2009,07,29,15,42,30.20
2009,07,29,15,43,30.20
2009,07,29,15,44,30.10
2009,07,29,15,45,30.10
2009,07,29,15,46,30.10
2009,07,29,15,47,30.10
2009,07,29,15,48,30.10
2009,07,29,15,49,30.10
2009,07,29,15,50,30.10
2009,07,29,15,51,30.10
2009,07,29,15,52,30.10
2009,07,29,15,53,30.00
2009,07,29,15,54,30.10
2009,07,29,15,55,30.10
2009,07,29,15,56,30.10
2009,07,29,15,57,30.00
2009,07,29,15,58,30.00
2009,07,29,15,59,30.00
2009,07,29,16,00,30.00
2009,07,29,16,01,30.00
2009,07,29,16,02,30.00
2009,07,29,16,03,30.00
2009,07,29,16,04,29.90
2009,07,29,16,05,30.00
2009,07,29,16,06,30.00
2009,07,29,16,07,29.90
2009,07,29,16,08,29.90
2009,07,29,16,09,29.90
2009,07,29,16,10,29.90
2009,07,29,16,11,29.90
2009,07,29,16,12,29.90
2009,07,29,16,13,29.90
2009,07,29,16,14,29.80
2009,07,29,16,15,29.70
2009,07,29,16,16,29.60
2009,07,29,16,17,29.50
2009,07,29,16,18,29.40
2009,07,29,16,19,29.30
2009,07,29,16,20,29.30
2009,07,29,16,21,29.40
2009,07,29,16,22,29.40
2009,07,29,16,23,29.50
2009,07,29,16,24,29.60
2009,07,29,16,25,29.60
2009,07,29,16,26,29.60
2009,07,29,16,27,29.60
2009,07,29,16,28,29.60
2009,07,29,16,29,29.60
2009,07,29,16,30,29.60
2009,07,29,16,31,29.60
2009,07,29,16,32,29.60
2009,07,29,16,33,29.60
2009,07,29,16,34,29.60
2009,07,29,16,35,29.60
2009,07,29,16,36,29.70
2009,07,29,16,37,29.70
2009,07,29,16,38,29.70
2009,07,29,16,39,29.80
2009,07,29,16,40,29.80
2009,07,29,16,41,29.80
2009,07,29,16,42,29.80
2009,07,29,16,43,29.90
2009,07,29,16,44,29.90
2009,07,29,16,45,29.90
2009,07,29,16,46,29.90
2009,07,29,16,47,30.00
2009,07,29,16,48,29.90
2009,07,29,16,49,29.90
2009,07,29,16,50,30.00
2009,07,29,16,51,30.00
2009,07,29,16,52,30.10
2009,07,29,16,53,30.10
2009,07,29,16,54,30.10
2009,07,29,16,55,30.20
2009,07,29,16,56,30.20
2009,07,29,16,57,30.20
2009,07,29,16,58,30.20
2009,07,29,16,59,30.30
2009,07,29,17,00,30.40
2009,07,29,17,01,30.40
2009,07,29,17,02,30.40
2009,07,29,17,03,30.40
2009,07,29,17,04,30.40
2009,07,29,17,05,30.40
2009,07,29,17,06,30.40
2009,07,29,17,07,30.40
2009,07,29,17,08,30.40
2009,07,29,17,09,30.40
2009,07,29,17,10,30.40
2009,07,29,17,11,30.50
2009,07,29,17,12,30.50
2009,07,29,17,13,30.60
2009,07,29,17,14,30.60
2009,07,29,17,15,30.60
2009,07,29,17,16,30.70
2009,07,29,17,17,30.70
2009,07,29,17,18,30.60
2009,07,29,17,19,30.60